Flag for Germany Weather past 2 weeks in Lindlar, North Rhine-Westphalia, Germany

Now
52 °F

Fog.


Feels Like: 52 °F
Forecast: 47 / 62 °F
Wind: 1 mph from Southwest

Location: Koeln / Bonn

Current Time: Sep 2, 2015 at 6:55:01 AM

Latest Report: Sep 2, 2015 at 5:00 AM


Visibility: 22 mi

Pressure: 30.07 "Hg

Humidity: 99%

Dew point: 51 °F

Location of LindlarLocation

Historic Weather in Lindlar — Graph

°F

Lindlar temperature yesterday

Maximum temperature yesterday: 71 °F (at 1:00 AM)
Minimum temperature yesterday: 57 °F (at 10:00 PM)
Average temperature yesterday: 63 °F

Past Weeks' High & Low Weather Summary

 TemperatureHumidityPressure
High92 °F (Aug 30, 5:00 PM)100% (Aug 19, 3:00 AM)30.27 "Hg (Aug 19, 3:00 AM)
Low47 °F (Aug 19, 7:00 AM)31% (Aug 31, 5:00 PM)29.58 "Hg (Aug 24, 3:00 PM)
Average66 °F71%29.99 "Hg
* Reported Aug 18 5:00 AM — Sep 2 5:00 AM, Lindlar, Weather by CustomWeather, © 2015

Note: Actual official high and low records may vary slightly from our data, if they occured in-between our weather recording intervals... More about our weather records

Advertising

Lindlar weather history for previous 24 hours

 ConditionsComfort  
Time TempWeatherWind HumidityBarometerVisibility
5:00 AM
Wed, Sep 2
52 °FFog.1 mph99%30.07 "Hg22 mi
4:00 AM53 °FFog.1 mph98%30.08 "Hg22 mi
3:00 AM53 °FPassing clouds.1 mph96%30.08 "Hg22 mi
2:00 AM53 °FFog.1 mph97%30.08 "Hg22 mi
1:00 AM55 °FFog.2 mph94%30.07 "Hg25 mi
11:00 PM
Tue, Sep 1
58 °FOvercast.3 mph93%30.05 "Hg25 mi
10:00 PM57 °FPassing clouds.1 mph98%30.04 "Hg25 mi
9:00 PM60 °FSprinkles. Overcast.3 mph88%30.03 "Hg19 mi
8:00 PM61 °FPartly sunny.2 mph84%30.00 "Hg31 mi
7:00 PM62 °FOvercast.3 mph82%29.98 "Hg31 mi
6:00 PM63 °FOvercast.5 mph80%29.96 "Hg31 mi
5:00 PM62 °FOvercast.5 mph85%29.95 "Hg28 mi
4:00 PM62 °FOvercast.6 mph88%29.94 "Hg19 mi
3:00 PM61 °FLow clouds.6 mph92%29.92 "Hg12 mi
2:00 PM60 °FLight rain. Low clouds.5 mph95%29.89 "Hg10 mi
1:00 PM61 °FRain. Low clouds.6 mph95%29.88 "Hg5 mi
12:00 PM62 °FLight rain. Low clouds.3 mph96%29.86 "Hg7 mi
11:00 AM61 °FRain. Low clouds.6 mph98%29.84 "Hg6 mi
10:00 AM62 °FRain. Low clouds.3 mph97%29.83 "Hg4 mi
9:00 AM62 °FLight rain. Low clouds.2 mph96%29.82 "Hg5 mi
8:00 AM61 °FRain. Overcast.3 mph98%29.84 "Hg2 mi
7:00 AM65 °FOvercast.3 mph79%29.84 "Hg9 mi
Weather by CustomWeather, © 2015

See weather overviewHow to use our weather pages